Weather History for Billings, MT

Change the Weather History Date:

Wednesday, October 31, 2012

  Actual Average Record
Temperature  
Mean Temperature 48 °F 43 °F  
Max Temperature 58 °F 53 °F 76 °F (1999)
Min Temperature 37 °F 32 °F 2 °F (1984)
Degree Days  
Heating Degree Days 17 22  
Month to date heating degree days 580 521  
Since 1 July heating degree days 645 752  
Cooling Degree Days 0 0  
Month to date cooling degree days 3 3  
Year to date cooling degree days 958 636  
Moisture  
Dew Point 36 °F    
Average Humidity 64    
Maximum Humidity 92    
Minimum Humidity 36    
Precipitation  
Precipitation 0.00 in 0.03 in 0.93 in (1974)
Month to date precipitation 1.14 1.18  
Year to date precipitation 6.22 12.53  
Snow  
Snow 0.00 in 0.20 in 5.40 in (1973)
Month to date snowfall 4.1 4.1  
Since 1 July snowfall 4.1 5.2  
Since 1 September snowfall 4.1 5.2  
Snow Depth 0.00 in    
Sea Level Pressure  
Sea Level Pressure 29.99 in    
Wind  
Wind Speed 10 mph (NNE)    
Max Wind Speed 20 mph    
Max Gust Speed 25 mph    
Visibility 10 miles    
Events      
T = Trace of Precipitation, MM = Missing Value Source: NWS Daily Summary

Daily Weather History Graph

Daily Weather History Graph

Search for Another Location

Airport:

Trip Planner

Search our weather history database for the weather conditions in past years. The results will help you decide how hot, cold, wet, or windy it might be!

Date:

Astronomy

Oct. 31, 2012 Rise Set
Actual Time 7:53 AM MDT 6:01 PM MDT
Civil Twilight 7:22 AM MDT 6:32 PM MDT
Nautical Twilight 6:47 AM MDT 7:07 PM MDT
Astronomical Twilight 6:12 AM MDT 7:41 PM MDT
Moon 7:08 PM MDT (10/31) 9:43 AM MDT (10/31)
Length of Visible Light 11h 09m
Length of Day
10h 07m
Full, 97% of the Moon is Illuminated
Oct 31
Full
Nov 6
Last Quarter
Nov 13
New
Nov 20
First Quarter
Nov 28
Full

Hourly Weather History & Observations

Time (MDT) Temp. Windchill Dew Point Humidity Pressure Visibility Wind Dir Wind Speed Gust Speed Precip Events Conditions
12:53 AM 55.9 °F - 30.9 °F 39% 29.94 in 10.0 mi WSW 12.7 mph - N/A   Clear
1:53 AM 57.0 °F - 30.0 °F 36% 29.94 in 10.0 mi WSW 11.5 mph - N/A   Partly Cloudy
2:53 AM 55.9 °F - 30.0 °F 37% 29.95 in 10.0 mi West 11.5 mph - N/A   Partly Cloudy
3:53 AM 54.0 °F - 30.9 °F 41% 29.96 in 10.0 mi West 12.7 mph - N/A   Clear
4:53 AM 55.0 °F - 30.9 °F 40% 29.96 in 10.0 mi SW 13.8 mph - N/A   Partly Cloudy
5:53 AM 52.0 °F - 30.9 °F 45% 29.98 in 10.0 mi WSW 13.8 mph - N/A   Partly Cloudy
6:53 AM 53.1 °F - 30.9 °F 43% 29.98 in 10.0 mi WSW 13.8 mph - N/A   Partly Cloudy
7:53 AM 52.0 °F - 30.9 °F 45% 30.01 in 10.0 mi ENE 4.6 mph - N/A   Scattered Clouds
8:53 AM 51.1 °F - 32.0 °F 48% 30.03 in 10.0 mi NE 4.6 mph - N/A   Mostly Cloudy
9:53 AM 50.0 °F - 34.0 °F 54% 30.05 in 10.0 mi North 4.6 mph - N/A   Scattered Clouds
10:53 AM 53.1 °F - 34.0 °F 48% 30.05 in 10.0 mi ENE 9.2 mph - N/A   Partly Cloudy
11:53 AM 55.0 °F - 37.0 °F 51% 30.05 in 10.0 mi ENE 9.2 mph - N/A   Partly Cloudy
12:53 PM 55.9 °F - 39.0 °F 53% 30.02 in 10.0 mi NNE 9.2 mph - N/A   Partly Cloudy
1:53 PM 57.0 °F - 39.9 °F 53% 30.00 in 10.0 mi NE 9.2 mph - N/A   Partly Cloudy
2:53 PM 55.9 °F - 39.9 °F 55% 29.98 in 10.0 mi NE 11.5 mph - N/A   Partly Cloudy
3:53 PM 55.9 °F - 39.9 °F 55% 29.97 in 10.0 mi NE 11.5 mph 24.2 mph N/A   Partly Cloudy
4:53 PM 53.1 °F - 39.9 °F 61% 29.98 in 10.0 mi NE 11.5 mph - N/A   Partly Cloudy
5:53 PM 50.0 °F - 39.9 °F 68% 29.99 in 10.0 mi NE 10.4 mph - N/A   Partly Cloudy
6:53 PM 46.9 °F - 39.9 °F 77% 29.99 in 10.0 mi NE 11.5 mph - N/A   Scattered Clouds
7:53 PM 44.1 °F 37.7 °F 39.9 °F 85% 29.99 in 10.0 mi NE 12.7 mph - N/A   Clear
8:53 PM 41.0 °F 35.2 °F 37.9 °F 89% 29.99 in 10.0 mi NNE 9.2 mph - N/A   Clear
9:53 PM 39.0 °F 33.4 °F 37.0 °F 93% 29.97 in 10.0 mi North 8.1 mph - N/A   Clear
10:53 PM 39.9 °F 34.5 °F 37.9 °F 93% 29.95 in 10.0 mi North 8.1 mph - N/A   Clear
11:53 PM 39.9 °F 34.5 °F 37.9 °F 93% 29.93 in 10.0 mi NNW 8.1 mph - N/A   Clear